| time (UTC) | temp F | wind direction | speed knots | gust knots | rain 1hr in | rain 24hr in | rain mn in | humidity % | barometer mb |
| 20260507231533 | 57 | 8 | 2.6 | 6.1 | 0.00 | 0.00 | 0.00 | 28 | 1011.3 |
| 20260507230023 | 58 | 331 | 3.5 | 7.0 | 0.00 | 0.00 | 0.00 | 28 | 1011.2 |
| 20260507224530 | 58 | 292 | 0.0 | 8.7 | 0.00 | 0.00 | 0.00 | 27 | 1011.2 |
| 20260507223022 | 59 | 41 | 0.9 | 8.7 | 0.00 | 0.00 | 0.00 | 27 | 1011.0 |
| 20260507221523 | 59 | 215 | 0.9 | 10.4 | 0.00 | 0.00 | 0.00 | 27 | 1010.9 |
| 20260507220019 | 60 | 286 | 1.7 | 14.8 | 0.00 | 0.00 | 0.00 | 26 | 1010.7 |
| 20260507214515 | 60 | 311 | 3.5 | 9.6 | 0.00 | 0.00 | 0.00 | 25 | 1010.6 |
| 20260507213014 | 61 | 192 | 4.3 | 10.4 | 0.00 | 0.00 | 0.00 | 25 | 1010.6 |
| 20260507211519 | 60 | 327 | 3.5 | 11.3 | 0.00 | 0.00 | 0.00 | 27 | 1010.5 |
| 20260507210010 | 61 | 358 | 4.3 | 7.8 | 0.00 | 0.00 | 0.00 | 26 | 1010.6 |
| 20260507204509 | 61 | 19 | 3.5 | 8.7 | 0.00 | 0.00 | 0.00 | 26 | 1010.5 |
| 20260507203010 | 62 | 359 | 6.1 | 13.0 | 0.00 | 0.00 | 0.00 | 26 | 1010.3 |
| 20260507201506 | 62 | 328 | 0.9 | 12.2 | 0.00 | 0.00 | 0.00 | 31 | 1010.5 |
| 20260507200004 | 62 | 318 | 4.3 | 10.4 | 0.00 | 0.00 | 0.00 | 29 | 1010.7 |
| 20260507194504 | 60 | 17 | 2.6 | 7.8 | 0.00 | 0.00 | 0.00 | 31 | 1011.2 |
| 20260507193003 | 61 | 360 | 1.7 | 10.4 | 0.00 | 0.00 | 0.00 | 32 | 1011.1 |
| 20260507191502 | 61 | 317 | 4.3 | 7.0 | 0.00 | 0.00 | 0.00 | 29 | 1011.1 |
| 20260507190106 | 61 | 321 | 5.2 | 8.7 | 0.00 | 0.00 | 0.00 | 31 | 1011.3 |
| 20260507184602 | 63 | 301 | 1.7 | 9.6 | 0.00 | 0.00 | 0.00 | 30 | 1011.3 |
| 20260507183058 | 63 | 288 | 1.7 | 7.8 | 0.00 | 0.00 | 0.00 | 30 | 1011.5 |
| 20260507181559 | 62 | 255 | 1.7 | 8.7 | 0.00 | 0.00 | 0.00 | 31 | 1011.6 |
| 20260507180054 | 61 | 359 | 6.1 | 10.4 | 0.00 | 0.00 | 0.00 | 29 | 1011.7 |
| 20260507174552 | 61 | 22 | 2.6 | 7.0 | 0.00 | 0.00 | 0.00 | 28 | 1011.7 |
| 20260507173050 | 61 | 6 | 3.5 | 8.7 | 0.00 | 0.00 | 0.00 | 30 | 1012.1 |
| 20260507171548 | 62 | 180 | 0.9 | 7.0 | 0.00 | 0.00 | 0.00 | 30 | 1012.2 |
| 20260507170046 | 61 | 26 | 4.3 | 9.6 | 0.00 | 0.00 | 0.00 | 33 | 1012.4 |
| 20260507164556 | 60 | 1 | 2.6 | 8.7 | 0.00 | 0.00 | 0.00 | 28 | 1012.5 |
| 20260507163041 | 60 | 190 | 1.7 | 7.0 | 0.00 | 0.00 | 0.00 | 32 | 1012.8 |
| 20260507161540 | 58 | 195 | 1.7 | 5.2 | 0.00 | 0.00 | 0.00 | 38 | 1012.8 |
| 20260507160039 | 57 | 47 | 0.9 | 3.5 | 0.00 | 0.06 | 0.00 | 34 | 1012.9 |
| 20260507154539 | 57 | 9 | 2.6 | 4.3 | 0.00 | 0.06 | 0.00 | 37 | 1013.0 |
| 20260507153030 | 57 | 340 | 4.3 | 7.0 | 0.00 | 0.06 | 0.00 | 36 | 1013.1 |
| 20260507151528 | 57 | 184 | 1.7 | 7.8 | 0.00 | 0.06 | 0.00 | 34 | 1013.2 |
| 20260507150127 | 55 | 330 | 0.9 | 4.3 | 0.00 | 0.06 | 0.00 | 40 | 1013.5 |
| 20260507144528 | 55 | 56 | 1.7 | 6.1 | 0.00 | 0.06 | 0.00 | 37 | 1013.5 |
| 20260507143022 | 55 | 92 | 0.9 | 5.2 | 0.00 | 0.06 | 0.00 | 40 | 1013.7 |
| 20260507141515 | 54 | 36 | 0.9 | 6.1 | 0.00 | 0.06 | 0.00 | 40 | 1014.1 |
| 20260507140010 | 53 | 2 | 1.7 | 6.1 | 0.00 | 0.06 | 0.00 | 40 | 1014.2 |
| 20260507134508 | 52 | 229 | 1.7 | 3.5 | 0.00 | 0.06 | 0.00 | 24 | 1014.6 |
| 20260507133002 | 51 | 226 | 0.9 | 4.3 | 0.00 | 0.06 | 0.00 | 23 | 1014.7 |
| 20260507131558 | 50 | 253 | 0.0 | 2.6 | 0.00 | 0.06 | 0.00 | 30 | 1014.7 |
| 20260507130107 | 49 | 28 | 0.0 | 2.6 | 0.00 | 0.06 | 0.00 | 27 | 1014.5 |
| 20260507124552 | 47 | 213 | 0.0 | 1.7 | 0.00 | 0.08 | 0.00 | 28 | 1014.6 |
| 20260507123053 | 46 | 197 | 0.0 | 2.6 | 0.00 | 0.08 | 0.00 | 35 | 1014.6 |
| 20260507121604 | 44 | 192 | 0.0 | 1.7 | 0.00 | 0.08 | 0.00 | 38 | 1014.5 |
| 20260507120057 | 42 | 325 | 0.0 | 1.7 | 0.00 | 0.08 | 0.00 | 41 | 1014.4 |
| 20260507114627 | 41 | 339 | 0.0 | 0.9 | 0.00 | 0.09 | 0.00 | 43 | 1014.5 |
| 20260507113045 | 40 | 342 | 0.0 | 0.9 | 0.00 | 0.09 | 0.00 | 44 | 1014.3 |
| 20260507111544 | 40 | 331 | 0.0 | 0.0 | 0.00 | 0.09 | 0.00 | 44 | 1014.2 |
| 20260507110041 | 40 | 330 | 0.0 | 0.0 | 0.00 | 0.21 | 0.00 | 43 | 1013.6 |
| 20260507104539 | 40 | 330 | 0.0 | 0.0 | 0.00 | 0.21 | 0.00 | 43 | 1013.5 |
| 20260507103037 | 40 | 330 | 0.0 | 0.0 | 0.00 | 0.21 | 0.00 | 43 | 1013.5 |
| 20260507101542 | 40 | 330 | 0.0 | 0.0 | 0.00 | 0.21 | 0.00 | 42 | 1013.4 |
| 20260507100036 | 40 | 330 | 0.0 | 0.0 | 0.00 | 0.30 | 0.00 | 42 | 1013.4 |
| 20260507094533 | 41 | 330 | 0.0 | 0.0 | 0.00 | 0.30 | 0.00 | 40 | 1013.4 |
| 20260507093030 | 41 | 330 | 0.0 | 0.0 | 0.00 | 0.30 | 0.00 | 39 | 1013.3 |
| 20260507091533 | 42 | 330 | 0.0 | 0.0 | 0.00 | 0.30 | 0.00 | 40 | 1013.4 |
| 20260507090035 | 42 | 330 | 0.0 | 0.0 | 0.00 | 0.35 | 0.00 | 38 | 1013.5 |
| 20260507084527 | 43 | 330 | 0.0 | 0.0 | 0.00 | 0.35 | 0.00 | 37 | 1013.5 |
| 20260507083031 | 43 | 330 | 0.0 | 0.0 | 0.00 | 0.35 | 0.00 | 37 | 1013.4 |
| 20260507081521 | 44 | 330 | 0.0 | 0.0 | 0.00 | 0.35 | 0.00 | 36 | 1013.4 |
| 20260507080022 | 45 | 330 | 0.0 | 0.0 | 0.00 | 0.37 | 0.00 | 36 | 1013.4 |
| 20260507074515 | 46 | 330 | 0.0 | 0.9 | 0.00 | 0.37 | 0.00 | 38 | 1013.3 |
| 20260507073013 | 46 | 330 | 0.0 | 0.9 | 0.00 | 0.37 | 0.00 | 38 | 1013.2 |
| 20260507071512 | 47 | 330 | 0.0 | 0.9 | 0.00 | 0.37 | 0.00 | 37 | 1013.1 |
| 20260507070012 | 47 | 330 | 0.0 | 0.0 | 0.00 | 0.37 | 0.00 | 36 | 1013.1 |
| 20260507064508 | 47 | 332 | 0.0 | 2.6 | 0.00 | 0.37 | 0.00 | 32 | 1013.2 |
| 20260507063007 | 47 | 36 | 0.0 | 3.5 | 0.00 | 0.37 | 0.00 | 33 | 1013.2 |
| 20260507061506 | 48 | 346 | 0.9 | 2.6 | 0.00 | 0.37 | 0.00 | 33 | 1013.3 |
| 20260507060005 | 47 | 4 | 0.0 | 2.6 | 0.00 | 0.37 | 0.00 | 34 | 1013.3 |
| 20260507054509 | 47 | 336 | 0.9 | 1.7 | 0.00 | 0.37 | 0.00 | 36 | 1013.4 |
| 20260507053000 | 48 | 336 | 0.0 | 1.7 | 0.00 | 0.37 | 0.00 | 39 | 1013.5 |
| 20260507051605 | 48 | 323 | 0.0 | 1.7 | 0.00 | 0.37 | 0.00 | 38 | 1013.8 |
| 20260507050059 | 48 | 323 | 0.0 | 0.9 | 0.00 | 0.37 | 0.00 | 39 | 1013.7 |
| 20260507044558 | 48 | 323 | 0.0 | 0.9 | 0.00 | 0.37 | 0.00 | 39 | 1013.7 |
| 20260507043055 | 48 | 323 | 0.0 | 0.9 | 0.00 | 0.37 | 0.00 | 39 | 1013.5 |
| 20260507041555 | 49 | 325 | 0.0 | 0.9 | 0.00 | 0.37 | 0.00 | 39 | 1013.4 |
| 20260507040055 | 49 | 325 | 0.0 | 0.9 | 0.00 | 0.37 | 0.00 | 38 | 1013.5 |
| 20260507034554 | 49 | 324 | 0.0 | 0.9 | 0.00 | 0.37 | 0.37 | 38 | 1013.5 |
| 20260507033052 | 49 | 324 | 0.0 | 1.7 | 0.00 | 0.37 | 0.37 | 36 | 1013.3 |
| 20260507031647 | 50 | 359 | 0.0 | 1.7 | 0.00 | 0.37 | 0.37 | 37 | 1013.6 |
| 20260507030044 | 50 | 338 | 0.9 | 3.5 | 0.00 | 0.37 | 0.37 | 43 | 1013.3 |
| 20260507024542 | 50 | 340 | 0.0 | 0.0 | 0.00 | 0.37 | 0.37 | 43 | 1013.0 |
| 20260507023048 | 50 | 340 | 0.0 | 0.0 | 0.00 | 0.37 | 0.37 | 43 | 1012.8 |
| 20260507021544 | 50 | 340 | 0.0 | 0.0 | 0.00 | 0.37 | 0.37 | 42 | 1012.6 |
| 20260507014541 | 51 | 340 | 0.0 | 0.0 | 0.00 | 0.37 | 0.37 | 42 | 1012.4 |
| 20260507013049 | 51 | 340 | 0.0 | 0.0 | 0.00 | 0.37 | 0.37 | 41 | 1012.5 |
| 20260507011538 | 51 | 340 | 0.0 | 0.0 | 0.00 | 0.37 | 0.37 | 41 | 1012.1 |
| 20260507010037 | 51 | 340 | 0.0 | 0.0 | 0.00 | 0.37 | 0.37 | 41 | 1012.1 |
| 20260507004542 | 51 | 340 | 0.0 | 0.0 | 0.00 | 0.37 | 0.37 | 41 | 1012.3 |
| 20260507003042 | 51 | 340 | 0.0 | 0.0 | 0.00 | 0.37 | 0.37 | 40 | 1012.4 |
| 20260507001543 | 51 | 340 | 0.0 | 0.9 | 0.00 | 0.37 | 0.37 | 39 | 1012.5 |
| 20260507000035 | 51 | 340 | 0.0 | 0.0 | 0.00 | 0.37 | 0.37 | 39 | 1013.0 |
| 20260506234534 | 51 | 340 | 0.0 | 0.0 | 0.00 | 0.37 | 0.37 | 39 | 1012.2 |
| 20260506233031 | 52 | 340 | 0.0 | 1.7 | 0.00 | 0.37 | 0.37 | 37 | 1011.9 |